Dewpoint
51 53 52 52 52 50 51 50 48 48 47 47 49 52 54 56 58 54 49 49 50 58 59 55 55 56 48 46 43 41 37 34 34 33 33 34 32 35 34 31 31 31 41 50 61
49 49 51 52 52 52 51 51 50 49 47 47 47 48 51 54 54 51 53 55 56 56 50 54 53 50 46 44 43 39 36 36 36 35 33 36 36 38 36 35 32 33 45 58 65
50 49 50 51 50 50 50 50 50 50 49 47 48 47 49 52 48 45 54 57 56 55 54 52 51 47 45 43 42 40 36 36 39 38 39 38 38 39 37 35 33 35 38 50 59
51 51 51 50 49 49 49 49 49 50 49 49 47 47 48 48 38 40 55 53 57 51 54 53 49 45 43 41 42 38 39 38 39 40 40 38 38 38 38 37 37 40 41 39 54
51 50 50 50 49 49 49 49 49 49 49 48 47 47 44 46 43 42 49 45 53 50 53 52 48 45 41 42 40 39 39 39 39 39 39 39 37 37 39 40 40 40 41 39 38
49 49 48 48 48 48 49 49 48 48 48 48 47 45 41 39 45 43 42 46 50 50 53 52 49 47 42 41 39 39 39 39 38 37 37 37 37 37 37 38 39 39 39 39 39
48 47 47 47 47 47 47 47 47 47 47 47 47 42 40 40 44 43 45 51 50 50 53 53 50 47 44 41 41 40 37 37 37 38 37 38 35 36 37 37 37 37 37 37 38
47 46 47 47 47 46 46 47 47 47 47 47 47 44 37 44 45 46 44 49 53 53 54 53 52 48 43 41 39 38 37 35 37 38 38 35 30 34 37 37 36 36 36 37 37
47 47 47 46 46 46 47 47 47 47 48 47 44 42 33 46 43 44 44 41 53 54 55 53 51 47 45 36 35 37 31 34 35 37 36 36 33 34 35 35 35 35 36 36 36
46 46 47 47 47 47 46 48 47 46 45 45 42 36 37 39 43 46 45 41 44 50 49 49 48 44 42 37 30 32 31 32 33 31 34 34 33 34 35 36 34 34 35 35 35
46 46 46 46 46 45 45 41 35 32 40 34 33 33 31 40 44 44 43 40 46 47 43 47 42 39 39 39 35 33 32 31 30 30 28 28 28 28 28 29 29 32 32 33 34
46 44 45 46 46 46 44 37 36 40 35 35 36 36 36 39 41 43 43 37 40 41 43 40 35 41 41 40 34 32 31 30 31 30 28 27 27 28 28 28 28 28 28 29 30
45 46 45 45 46 44 41 38 45 44 34 32 36 34 33 38 40 42 40 38 40 39 41 36 37 44 43 40 37 35 32 30 29 28 27 26 23 23 24 26 26 27 28 28 28
45 45 46 47 43 43 40 44 45 45 27 26 32 38 37 38 41 43 40 40 41 38 39 37 40 42 40 38 38 33 32 30 28 26 25 26 21 23 22 21 23 24 22 22 23
48 49 50 48 44 39 41 45 45 40 7 27 33 42 40 38 42 39 41 41 39 40 39 36 36 35 36 34 33 30 31 28 27 26 22 24 22 20 20 19 17 22 23 26 28
50 48 47 45 44 44 46 45 43 22 12 28 33 34 35 38 40 39 38 40 41 38 35 34 35 34 32 33 31 31 28 28 26 23 14 20 20 13 17 19 22 22 26 30 31
49 47 46 46 40 45 43 41 20 16 30 27 30 33 33 37 37 37 37 37 36 32 33 34 33 32 33 30 31 28 25 15 11 13 13 24 22 20 23 25 25 24 29 31 34
49 46 45 46 45 43 39 26 15 26 29 35 33 34 34 37 37 38 36 34 36 34 31 26 27 31 32 30 29 28 25 18 6 13 16 23 21 19 22 22 25 28 29 32 35
46 42 45 46 44 43 36 22 24 28 32 32 33 33 35 36 37 36 33 31 33 31 29 25 27 32 32 32 30 28 22 25 19 16 14 19 19 16 22 24 27 27 30 30 34
39 38 40 45 45 41 32 27 31 35 33 32 32 34 32 33 35 34 32 31 31 31 31 27 25 32 32 33 32 28 28 22 18 10 9 12 14 9 19 23 26 26 28 30 34
37 33 39 43 44 35 28 30 33 37 35 35 30 31 33 31 31 29 29 31 31 31 31 29 27 32 33 31 29 29 28 25 23 19 13 13 7 19 20 24 26 27 29 31 36
34 24 39 42 32 32 32 35 37 37 38 34 32 31 29 29 28 28 27 29 31 31 29 31 31 29 30 30 31 30 28 24 17 15 19 19 15 21 23 26 26 27 30 37 40
32 32 39 40 31 32 36 37 37 37 36 32 30 31 30 28 26 28 28 32 32 31 29 30 25 23 27 29 31 29 29 25 23 21 20 15 12 22 26 24 26 28 33 41 41
33 29 35 38 38 36 34 35 33 38 34 32 31 31 31 30 31 29 31 35 34 32 37 32 26 22 20 21 27 23 29 26 24 17 20 19 19 22 23 24 26 28 39 39 39
34 32 37 33 36 37 37 36 34 34 35 35 33 33 31 29 30 31 32 32 34 39 33 30 25 26 26 28 28 27 28 28 23 24 20 21 22 24 25 27 28 31 38 36 34
36 35 37 35 34 35 36 35 35 35 34 34 34 34 33 30 30 30 31 30 30 32 31 30 25 27 24 27 29 28 29 29 29 28 27 27 27 29 29 29 30 39 35 34 32
41 42 39 32 31 31 32 34 35 36 37 38 36 34 33 35 34 33 33 33 32 31 31 29 27 24 19 26 27 24 28 29 29 29 29 26 28 28 30 33 40 36 32 30 28
Lifted_Index
9 9 8 8 7 7 7 7 7 8 8 8 7 5 3 2 2 2 3 3 3 2 1 1 1 1 1 3 4 5 5 6 6 6 5 5 6 6 6 7 7 6 5 2 -0
9 9 8 8 7 7 7 7 7 8 8 8 7 6 4 2 2 2 2 3 2 2 1 1 1 1 1 3 4 5 5 6 6 6 5 5 5 6 6 7 7 6 4 1 -1
9 9 9 8 8 7 7 7 7 7 8 8 8 7 6 4 3 2 1 1 2 1 1 0 0 1 2 3 4 5 6 6 6 5 5 5 5 6 6 7 6 5 3 0 -2
9 9 9 8 8 8 8 7 7 7 7 8 8 7 7 5 3 2 1 0 1 1 -0 -0 1 1 2 3 4 5 6 6 5 5 4 5 5 6 6 6 6 5 3 0 -2
9 9 9 9 9 8 8 7 7 7 7 7 7 7 7 5 4 2 1 1 0 -0 -1 -1 0 2 2 3 4 5 5 5 5 4 4 5 5 6 6 6 6 5 3 0 -1
10 9 9 9 9 8 7 6 5 5 5 6 6 6 6 6 4 3 2 1 0 -0 -1 -1 0 1 2 3 3 4 5 5 4 4 4 5 6 6 6 6 6 6 4 1 -0
10 10 9 9 7 6 5 3 3 2 3 4 5 5 6 6 5 3 2 2 0 -1 -2 -2 -1 1 2 3 3 4 4 5 4 4 5 5 5 6 6 6 6 6 5 3 2
10 10 9 7 5 3 2 1 1 0 1 2 3 5 6 5 4 3 2 1 -0 -1 -1 -2 -1 0 1 2 3 4 4 4 4 4 5 5 5 6 6 6 6 6 6 5 5
10 9 7 5 3 2 1 0 -0 -1 -1 0 2 4 5 4 3 2 1 0 -0 -1 -1 -1 -1 0 1 2 3 3 4 4 4 4 5 5 5 6 6 6 6 7 7 7 6
10 8 5 3 2 1 1 0 -0 -0 -1 -0 1 3 4 3 2 1 1 0 0 -0 -0 0 0 1 1 2 2 3 4 4 4 4 5 5 6 6 6 6 6 7 7 7 7
9 7 3 2 1 1 1 1 1 1 0 0 2 3 4 3 1 1 1 1 1 0 0 1 1 1 1 2 2 3 4 4 4 5 5 6 6 7 6 6 7 7 6 7 7
8 5 2 1 1 1 1 2 1 1 1 1 2 3 3 2 1 1 1 1 1 0 0 1 1 1 1 1 2 2 3 3 4 4 5 6 6 6 6 6 7 7 7 7 7
7 5 2 1 1 1 2 2 1 1 1 1 2 3 3 2 1 1 1 2 1 1 0 1 1 1 1 1 1 2 2 2 3 4 5 5 5 5 6 6 7 7 7 7 8
6 4 2 1 2 2 2 2 1 1 1 2 2 3 3 2 1 1 1 1 1 0 0 1 1 1 1 1 2 2 2 3 3 4 5 5 4 4 5 6 7 8 8 8 8
5 3 1 1 1 2 2 2 2 2 2 2 3 3 2 1 0 1 1 1 1 0 1 1 1 1 1 1 2 2 3 3 4 4 5 5 4 4 5 6 7 8 9 9 9
4 3 2 2 2 2 2 2 2 2 2 3 4 3 1 1 1 1 1 1 1 1 1 1 1 1 1 1 2 2 3 3 3 3 4 4 4 4 5 6 7 8 8 9 8
4 4 3 3 3 3 3 3 2 1 2 3 4 3 1 1 1 1 2 2 1 1 1 1 1 1 1 1 2 2 2 2 2 2 3 4 4 4 5 6 7 7 8 8 8
6 5 5 4 4 5 4 3 2 1 2 3 3 2 1 1 1 2 2 2 2 1 1 1 1 1 1 1 2 2 3 2 2 2 2 3 3 4 5 6 7 7 7 7 7
7 7 6 6 6 5 4 2 2 2 3 3 2 1 1 1 1 2 2 2 1 1 1 1 1 2 2 2 2 3 3 3 3 2 2 2 3 4 5 6 7 7 7 7 6
8 7 7 7 6 5 3 2 2 2 2 2 2 1 1 1 1 2 2 2 2 1 1 1 1 2 2 3 3 3 4 4 4 2 1 1 2 3 5 6 6 6 6 6 6
7 6 6 6 5 4 3 2 2 2 2 2 2 2 2 2 2 2 2 2 2 1 1 2 2 2 3 3 3 4 4 4 4 3 1 1 2 4 5 5 5 6 6 6 6
6 5 5 5 4 3 2 2 2 2 2 2 2 2 2 2 2 2 2 2 2 2 2 3 3 3 3 4 4 4 4 4 4 3 2 2 3 5 6 6 6 5 5 6 6
5 4 4 4 3 2 2 2 2 2 2 2 2 2 2 2 2 2 2 2 2 2 3 3 3 3 3 3 4 4 5 5 4 3 2 2 3 5 6 6 6 6 5 5 5
4 4 3 3 3 3 2 2 2 2 2 2 2 3 3 3 3 3 3 3 3 3 3 4 4 4 3 3 4 4 4 5 4 3 3 3 4 5 6 6 5 5 5 5 5
4 3 3 3 3 3 3 3 3 3 3 3 3 3 3 3 3 3 3 3 3 3 3 4 4 4 4 4 4 4 4 4 4 4 3 3 4 4 5 5 5 5 5 5 5
4 4 3 3 3 3 3 3 3 3 3 3 3 3 3 3 3 3 3 4 4 4 4 4 5 5 4 4 4 4 4 4 4 4 4 3 3 3 4 4 4 4 4 5 5
5 5 4 3 3 3 3 3 3 3 3 3 3 3 3 3 3 3 4 4 4 4 4 5 5 4 4 4 3 3 4 4 5 5 4 3 2 3 3 4 4 4 4 5 5